This is the latest recevied weather packets stored in our database for station/object K4ZZR. If no packets are shown the sender has not sent any weather packets the latest 10 day(s).
| Time | Temp. | Humidity | Pressure | Rain* | Wind** | Luminosity | Snow |
|---|---|---|---|---|---|---|---|
| 1777923761 | 25° C | 78% | 1014.8 hPa | 0 mm | - | 285 W/m² | - |
| 1777923458 | 25° C | 77% | 1014.8 hPa | 0 mm | - | 322 W/m² | - |
| 1777923155 | 25° C | 77% | 1014.5 hPa | 0 mm | - | 949 W/m² | - |
| 1777922853 | 25° C | 79% | 1014.9 hPa | 0 mm | - | 466 W/m² | - |
| 1777922551 | 24.44° C | 80% | 1014.8 hPa | 0 mm | - | 258 W/m² | - |
| 1777922250 | 25° C | 80% | 1014.8 hPa | 0 mm | - | 276 W/m² | - |
| 1777921946 | 24.44° C | 79% | 1015.1 hPa | 0 mm | - | 388 W/m² | - |
| 1777921641 | 25° C | 79% | 1015.2 hPa | 0 mm | - | 366 W/m² | - |
| 1777921338 | 25° C | 79% | 1015.3 hPa | 0 mm | - | 829 W/m² | - |
| 1777921035 | 24.44° C | 80% | 1015.1 hPa | 0 mm | - | 569 W/m² | - |
| 1777920732 | 25° C | 80% | 1015 hPa | 0 mm | - | 538 W/m² | - |
| 1777920428 | 24.44° C | 81% | 1015.1 hPa | 0 mm | - | 605 W/m² | - |
| 1777920123 | 25° C | 79% | 1015.3 hPa | 0 mm | - | 778 W/m² | - |
| 1777919820 | 25° C | 80% | 1015.5 hPa | 0 mm | - | 604 W/m² | - |
| 1777919517 | 25° C | 81% | 1015.3 hPa | 0 mm | - | 915 W/m² | - |
| 1777919214 | 24.44° C | 83% | 1015.4 hPa | 0 mm | - | 923 W/m² | - |
| 1777918912 | 23.89° C | 83% | 1015.5 hPa | 0 mm | - | 253 W/m² | - |
| 1777918609 | 24.44° C | 82% | 1015.6 hPa | 0 mm | - | 308 W/m² | - |
| 1777918307 | 23.89° C | 83% | 1015.6 hPa | 0 mm | - | 445 W/m² | - |
| 1777918006 | 23.89° C | 83% | 1015.6 hPa | 0 mm | - | 192 W/m² | - |
| 1777917704 | 24.44° C | 82% | 1015.6 hPa | 0 mm | - | 149 W/m² | - |
| 1777917401 | 24.44° C | 81% | 1015.7 hPa | 0 mm | - | 216 W/m² | - |
| 1777917097 | 24.44° C | 81% | 1015.8 hPa | 0 mm | - | 118 W/m² | - |
| 1777916796 | 24.44° C | 81% | 1015.7 hPa | 0 mm | - | 150 W/m² | - |
| 1777916492 | 25° C | 79% | 1015.9 hPa | 0 mm | - | 340 W/m² | - |
* Rain latest hour (hover to see other rain measurements)
** Current wind speed in m/s (hover to see current wind gust speed)